Tracking 25964 objects as of 11-Aug-2022
HD Live streaming from Space Station
objects crossing your sky now

METEOR 1-26

Track METEOR 1-26 now!
10-day predictions
METEOR 1-26 is classified as:


NORAD ID: 9481
Int'l Code: 1976-102A
Perigee: 851.5 km
Apogee: 882.3 km
Inclination: 81.2 °
Period: 102.1 minutes
Semi major axis: 7237 km
RCS: 4.3206 m2 (large)
Launch date: October 15, 1976
Source: Commonwealth of Independent States (former USSR) (CIS)
Launch site: PLESETSK MISSILE AND SPACE COMPLEX (PKMTR)
aabbcc
Your satellite tracking list
Your tracking list is empty




NASA's NSSDC Master Catalog

Two Line Element Set (TLE):
1  9481U 76102A   22223.77251960  .00000178  00000-0  93991-4 0  9997
2  9481  81.2211 336.6311 0021274 282.8595  77.0199 14.09885257355833
Source of the keplerian elements: AFSPC